[[{"header":{"parameterUnit":"m.s-1","parameterCategory":1,"la1":30.2991,"la2":30.254,"lo1":-89.0895,"lo2":-89.0444,"dy":0.0017,"dx":0.0017,"nx":28,"ny":28,"refTime":"2024-07-31T09:00:00:Z","depth":0,"parameterNumber":2,"parameterNumberName":"U-component_of_WINDS"},"data":[0,0,0,0,0,0,0,0,0,0,0,0,0,0,0,0,0,0,0,0,0,0,0,0,0,0,0,0,0,0,0,0,0,0,0,0,0,0,0,0,0,0,0,0,0,0,0,0,0,0,0,0,0,0,0,0,0,0,0.2424,0.2425,0,0.2485,0.2486,0.2487,0.25,0.25,0.2499,0.2499,0.2563,0.2565,0.2567,0,0,0,0,0,0,0,0,0,0,0,0,0,0.2321,0.2323,0.2424,0.2425,0.2426,0.2485,0.2486,0.2487,0.25,0.25,0.2499,0.2499,0.2562,0.2565,0.2567,0,0,0,0,0,0,0,0,0,0,0,0,0,0.2372,0.2324,0.2424,0.2439,0.2441,0.2485,0.2486,0.2487,0.25,0.25,0.2499,0.2498,0.2562,0.2565,0.2568,0.26,0,0,0.2577,0.2579,0,0,0,0,0,0,0,0,0.2369,0.2376,0.2436,0.2438,0.2441,0.2484,0.2473,0.2525,0.2501,0.2478,0.2499,0.2498,0.2537,0.2543,0.2556,0.2603,0.2606,0.2578,0.258,0.2581,0.2582,0,0,0,0,0,0,0,0.2366,0.2374,0.2448,0.2437,0.244,0.2444,0.2451,0.2483,0.2511,0.248,0.2481,0.2488,0.2539,0.2552,0.2557,0.2607,0.2578,0.258,0.2582,0.2584,0.2686,0.2687,0,0,0,0,0,0,0.2359,0.2371,0.2446,0.245,0.2403,0.2446,0.2454,0.2471,0.251,0.2516,0.2489,0.2488,0.2547,0.2553,0.2559,0.2601,0.2581,0.2584,0.2586,0.2685,0.2686,0.2687,0,0,0,0,0,0,0.2357,0.2366,0.2444,0.2411,0.2421,0.2449,0.2468,0.2473,0.2486,0.2517,0.2522,0.2498,0.2547,0.2555,0.259,0.2603,0.2585,0.2588,0.2684,0.2686,0.2687,0.2684,0,0,0,0,0,0,0.2354,0.2365,0.2377,0.2411,0.2423,0.2473,0.2469,0.2474,0.2492,0.2492,0.2527,0.2532,0.2547,0.2585,0.2593,0.2607,0.2591,0.2683,0.2685,0.2686,0.2683,0.2685,0.2687,0,0,0,0,0,0.235,0.2374,0.2378,0.2387,0.2438,0.2474,0.2481,0.2497,0.2493,0.2506,0.2525,0.2531,0.2601,0.2589,0.2598,0.2613,0.2683,0.2684,0.2686,0.2682,0.2685,0.2686,0,0,0,0,0,0,0.2342,0.2379,0.2383,0.2418,0.2443,0.2476,0.2493,0.2499,0.2526,0.2525,0.2545,0.2553,0.2587,0.2604,0.259,0.2648,0.2642,0.2645,0.2635,0.2638,0.264,0.2635,0.2593,0,0,0,0,0,0.2344,0.2369,0.24,0.2428,0.244,0.2464,0.248,0.2491,0.2517,0.2528,0.255,0.2576,0.2604,0.2622,0.2649,0.2685,0.2694,0.27,0.2702,0.2704,0.2707,0.2728,0.2732,0.2693,0.2693,0.2693,0,0,0.2349,0.2372,0.2387,0.2427,0.2447,0.2474,0.2473,0.25,0.252,0.2532,0.2567,0.2584,0.2614,0.2651,0.2668,0.2666,0.2719,0.2706,0.2707,0.2709,0.273,0.2734,0.2737,0.2694,0.2694,0.2694,0,0,0.2371,0.2391,0.2417,0.2437,0.2467,0.2483,0.2489,0.2522,0.2534,0.2569,0.2578,0.2603,0.265,0.2671,0.2688,0.2719,0.2726,0.2728,0.2737,0.2758,0.2761,0.2764,0.2775,0.2779,0.2731,0.2731,0.2731,0,0.2373,0.2412,0.2429,0.2457,0.2474,0.2486,0.2513,0.2532,0.257,0.2583,0.258,0.264,0.2661,0.2702,0.271,0.2723,0.2732,0.2724,0.2759,0.2762,0.2765,0.2776,0.278,0.2731,0.2731,0.2731,0.2731,0,0.2414,0.2441,0.2458,0.2494,0.2514,0.2541,0.2563,0.2582,0.2591,0.2607,0.2643,0.2669,0.2702,0.2713,0.2722,0.2756,0.2754,0.2755,0.2749,0.2768,0.2779,0.2784,0.2731,0.2731,0.2731,0.2731,0,0,0.2432,0.2477,0.2484,0.25,0.2535,0.2557,0.2585,0.2617,0.2632,0.2658,0.2683,0.2723,0.2724,0.2743,0.2755,0.2773,0.2797,0.2772,0.2773,0.2776,0.2837,0.2836,0.2841,0.2801,0.2802,0.2803,0.2834,0,0.2459,0.2508,0.2525,0.2566,0.2592,0.2604,0.2629,0.2653,0.2669,0.2694,0.2713,0.2741,0.274,0.2752,0.277,0.279,0.2809,0.2788,0.2825,0.2826,0.2817,0.2846,0.2846,0.2874,0.2839,0.2839,0.284,0,0.2496,0.2523,0.2567,0.2599,0.261,0.2632,0.2663,0.2686,0.2715,0.2725,0.2747,0.2758,0.2788,0.2781,0.2824,0.2809,0.2825,0.2837,0.2839,0.2843,0.2834,0.2852,0.2884,0.2888,0.2847,0.2846,0.2846,0,0.2506,0.2552,0.2585,0.2599,0.2637,0.2652,0.2669,0.2696,0.2715,0.2742,0.2754,0.2785,0.2802,0.2826,0.2845,0.2837,0.2886,0.288,0.2896,0.2896,0.2906,0.2905,0.2941,0.2916,0.2916,0.2916,0.2916,0,0.2534,0.256,0.2589,0.2609,0.264,0.2659,0.2689,0.2707,0.2731,0.2755,0.2768,0.279,0.2814,0.284,0.2855,0.2888,0.2896,0.2906,0.291,0.2905,0.2904,0.2916,0.2914,0.2917,0.2917,0.2916,0.2916,0,0.2549,0.257,0.2606,0.2639,0.2649,0.267,0.2698,0.2719,0.2736,0.2766,0.2775,0.2802,0.2833,0.2854,0.2894,0.2905,0.2941,0.2944,0.2931,0.2933,0.2948,0.2946,0.2993,0.3001,0.297,0.297,0.2971,0,0.2566,0.2587,0.2622,0.2639,0.2656,0.2683,0.2702,0.2722,0.2741,0.2775,0.2792,0.2824,0.285,0.29,0.2923,0.2954,0.2959,0.2973,0.2963,0.2958,0.2959,0.2958,0.296,0.2974,0.2975,0.2975,0.2975,0,0.2594,0.2603,0.2629,0.266,0.2682,0.2707,0.2732,0.2745,0.277,0.2791,0.2823,0.2843,0.2884,0.2916,0.2949,0.2967,0.2975,0.2978,0.2983,0.2979,0.297,0.2975,0.2935,0.2977,0.2976,0.2976,0.2976,0.2976,0.2611,0.263,0.2658,0.2687,0.2708,0.2732,0.2752,0.2772,0.2799,0.2834,0.2844,0.2877,0.2906,0.2951,0.297,0.2997,0.2996,0.3003,0.3005,0.3007,0.3007,0.2966,0.3003,0.3003,0.3003,0.3003,0.3003,0,0.2639,0.2658,0.2685,0.272,0.2743,0.2748,0.2776,0.2796,0.2825,0.285,0.2876,0.2914,0.2945,0.2971,0.3003,0.3019,0.3024,0.3027,0.3026,0.303,0.3006,0.2998,0.3023,0.3023,0.3023,0.3023,0.3023,0.3023,0.2657,0.269,0.2703,0.2747,0.2765,0.2798,0.2814,0.2835,0.2856,0.2897,0.2923,0.2939,0.2966,0.3,0.3029,0.3036,0.3047,0.305,0.3058,0.3034,0.3032,0.303,0.3023,0.3052,0.3052,0.308,0.308,0.308]},{"header":{"parameterUnit":"m.s-1","parameterCategory":1,"la1":30.2991,"la2":30.254,"lo1":-89.0895,"lo2":-89.0444,"dy":0.0017,"dx":0.0017,"nx":28,"ny":28,"refTime":"2024-07-31T09:00:00:Z","depth":0,"parameterNumber":3,"parameterNumberName":"V-component_of_WINDS"},"data":[0,0,0,0,0,0,0,0,0,0,0,0,0,0,0,0,0,0,0,0,0,0,0,0,0,0,0,0,0,0,0,0,0,0,0,0,0,0,0,0,0,0,0,0,0,0,0,0,0,0,0,0,0,0,0,0,0,0,0.5767,0.5767,0,0.5736,0.5736,0.5736,0.5702,0.5702,0.5701,0.5701,0.5668,0.5668,0.5668,0,0,0,0,0,0,0,0,0,0,0,0,0,0.5792,0.5791,0.5767,0.5766,0.5766,0.5737,0.5736,0.5736,0.5702,0.5702,0.5701,0.57,0.5669,0.5668,0.5668,0,0,0,0,0,0,0,0,0,0,0,0,0,0.5773,0.5791,0.5767,0.5746,0.5744,0.5737,0.5736,0.5736,0.5702,0.5702,0.5701,0.57,0.5669,0.5668,0.5668,0.5679,0,0,0.5666,0.5665,0,0,0,0,0,0,0,0,0.5774,0.5772,0.5749,0.5747,0.5745,0.5722,0.5733,0.5716,0.5702,0.5718,0.5701,0.57,0.5687,0.5685,0.5681,0.5677,0.5676,0.5666,0.5665,0.5665,0.5665,0,0,0,0,0,0,0,0.5775,0.5773,0.5755,0.5749,0.5746,0.5736,0.5733,0.573,0.5707,0.5717,0.5714,0.5711,0.5685,0.5681,0.568,0.5675,0.5666,0.5665,0.5665,0.5665,0.5674,0.5675,0,0,0,0,0,0,0.578,0.5775,0.5756,0.5754,0.5758,0.5737,0.5733,0.573,0.5707,0.5703,0.5712,0.5709,0.5683,0.568,0.5678,0.5687,0.5665,0.5664,0.5664,0.5673,0.5674,0.5675,0,0,0,0,0,0,0.5781,0.5779,0.5757,0.5763,0.576,0.5737,0.5734,0.573,0.5726,0.5703,0.5699,0.5712,0.5682,0.5679,0.5678,0.5685,0.5664,0.5664,0.5673,0.5674,0.5675,0.5705,0,0,0,0,0,0,0.5782,0.5779,0.5785,0.5764,0.576,0.5758,0.5735,0.573,0.5725,0.5722,0.5702,0.5698,0.5681,0.5679,0.5677,0.5684,0.5663,0.5672,0.5673,0.5674,0.5704,0.5707,0.571,0,0,0,0,0,0.5783,0.5795,0.5785,0.5783,0.5766,0.5759,0.5756,0.5737,0.5726,0.573,0.5714,0.5699,0.5685,0.5679,0.5677,0.5684,0.5671,0.5673,0.5674,0.5702,0.5706,0.571,0,0,0,0,0,0,0.5818,0.5792,0.5781,0.5787,0.5775,0.5753,0.5758,0.5743,0.5734,0.5732,0.5708,0.5703,0.5704,0.5694,0.5688,0.569,0.5675,0.5676,0.5697,0.5701,0.5705,0.5707,0.5663,0,0,0,0,0,0.5827,0.5824,0.5801,0.5809,0.5803,0.5782,0.5778,0.5764,0.575,0.5745,0.573,0.5717,0.5709,0.5705,0.5697,0.5702,0.5695,0.5705,0.5708,0.5711,0.5712,0.571,0.5713,0.5679,0.5679,0.5679,0,0,0.5844,0.583,0.583,0.5815,0.5805,0.5801,0.5778,0.5776,0.5772,0.5745,0.5742,0.573,0.5714,0.5714,0.5714,0.5706,0.572,0.5713,0.5715,0.5715,0.5712,0.5715,0.5718,0.568,0.568,0.568,0,0,0.5874,0.5864,0.5867,0.5856,0.584,0.5825,0.5825,0.5805,0.5795,0.5792,0.577,0.5765,0.5753,0.5741,0.5734,0.5754,0.5738,0.5752,0.577,0.5768,0.5771,0.5773,0.5778,0.578,0.5753,0.5753,0.5753,0,0.5898,0.5892,0.5871,0.5869,0.5862,0.5836,0.5838,0.5828,0.581,0.5805,0.5796,0.5778,0.5765,0.5761,0.5765,0.5761,0.5759,0.5754,0.5772,0.5774,0.5776,0.578,0.5782,0.5755,0.5755,0.5754,0.5754,0,0.5921,0.5917,0.5921,0.5903,0.5896,0.5896,0.5873,0.5869,0.5854,0.5839,0.5834,0.5817,0.5804,0.5802,0.5788,0.5794,0.5789,0.5777,0.5761,0.5781,0.5784,0.5786,0.5757,0.5757,0.5756,0.5756,0,0,0.5974,0.5941,0.5943,0.5933,0.5911,0.5907,0.5904,0.589,0.5885,0.5873,0.5868,0.5857,0.5843,0.5835,0.5819,0.5818,0.5831,0.5805,0.5804,0.5808,0.5833,0.5842,0.5845,0.582,0.5821,0.5821,0.5834,0,0.5998,0.5992,0.5971,0.5971,0.5965,0.5939,0.5936,0.5921,0.5906,0.5897,0.5881,0.5872,0.5857,0.5851,0.5848,0.583,0.5836,0.5829,0.5814,0.5814,0.5818,0.5847,0.5857,0.5871,0.5836,0.5836,0.5836,0,0.6026,0.6013,0.6012,0.5987,0.5984,0.5982,0.5965,0.5958,0.594,0.5929,0.5917,0.5899,0.5892,0.5877,0.5866,0.5862,0.5854,0.5844,0.5844,0.5841,0.5826,0.5843,0.5875,0.5876,0.5838,0.5838,0.5838,0,0.6061,0.6044,0.6041,0.6033,0.6004,0.6003,0.5991,0.5971,0.5963,0.5948,0.5942,0.5927,0.5918,0.5906,0.5883,0.5875,0.5873,0.5858,0.5862,0.5863,0.5863,0.5863,0.5892,0.586,0.586,0.586,0.586,0,0.609,0.6089,0.6055,0.6053,0.6051,0.6026,0.6024,0.6009,0.5991,0.5984,0.5961,0.5954,0.5925,0.5914,0.5896,0.5888,0.5885,0.5874,0.5869,0.5876,0.5877,0.587,0.5868,0.5861,0.5861,0.5861,0.586,0,0.6129,0.6107,0.61,0.6073,0.6065,0.6065,0.604,0.6036,0.6018,0.6009,0.6005,0.5978,0.5964,0.594,0.5919,0.5907,0.5901,0.5894,0.5907,0.5904,0.5909,0.5908,0.5934,0.5935,0.5904,0.5904,0.5905,0,0.6148,0.6147,0.6118,0.6111,0.61,0.609,0.6081,0.6055,0.6046,0.6022,0.602,0.6004,0.599,0.5968,0.5945,0.5928,0.5919,0.5929,0.5917,0.5922,0.5917,0.5917,0.5915,0.5932,0.5932,0.5933,0.5933,0,0.6183,0.6171,0.6159,0.6142,0.6132,0.6117,0.6102,0.6097,0.6067,0.6058,0.6043,0.6032,0.6009,0.5993,0.5972,0.5958,0.594,0.5937,0.5937,0.5943,0.595,0.5944,0.5914,0.5937,0.5936,0.5936,0.5936,0.5936,0.6211,0.6207,0.6186,0.6172,0.6157,0.6142,0.6136,0.6117,0.6104,0.6084,0.6069,0.6054,0.6032,0.6002,0.5988,0.5975,0.5967,0.5968,0.5967,0.5967,0.5969,0.5953,0.5971,0.5971,0.5971,0.5971,0.5971,0,0.6242,0.6227,0.6215,0.6192,0.6181,0.6165,0.6146,0.6137,0.6124,0.6105,0.6091,0.6072,0.6055,0.603,0.601,0.6004,0.5995,0.6,0.6,0.5996,0.5978,0.5979,0.6008,0.6007,0.6007,0.6007,0.6007,0.6007,0.6258,0.625,0.6235,0.6218,0.6202,0.6187,0.6177,0.6163,0.6147,0.6127,0.6112,0.6096,0.6074,0.6052,0.6035,0.6027,0.6021,0.6027,0.6018,0.6001,0.5998,0.5995,0.5996,0.6027,0.6027,0.6036,0.6036,0.6037]}]]